TimeMST,TemperatureF,Dew PointF,Humidity,Sea Level PressureIn,VisibilityMPH,Wind Direction,Wind SpeedMPH,Gust SpeedMPH,PrecipitationIn,Events,Conditions,WindDirDegrees,DateUTC
12:53 AM,14.0,5.0,67,30.09,10.0,NNW,4.6,-,N/A,,Overcast,330,2012-12-31 07:53:00
1:53 AM,15.1,6.1,68,30.08,10.0,Calm,Calm,-,N/A,,Overcast,0,2012-12-31 08:53:00
2:53 AM,16.0,7.0,68,30.07,10.0,Calm,Calm,-,N/A,,Overcast,0,2012-12-31 09:53:00
3:53 AM,15.1,7.0,70,30.08,10.0,Calm,Calm,-,N/A,,Scattered Clouds,0,2012-12-31 10:53:00
4:53 AM,14.0,7.0,74,30.10,10.0,Calm,Calm,-,N/A,,Clear,0,2012-12-31 11:53:00
5:53 AM,12.0,6.1,77,30.12,10.0,West,3.5,-,N/A,,Overcast,260,2012-12-31 12:53:00
6:53 AM,10.0,5.0,80,30.13,10.0,West,5.8,-,N/A,,Mostly Cloudy,260,2012-12-31 13:53:00
7:53 AM,10.0,5.0,80,30.16,10.0,SW,3.5,-,N/A,,Partly Cloudy,230,2012-12-31 14:53:00
8:53 AM,12.0,6.1,77,30.17,10.0,West,5.8,-,N/A,,Mostly Cloudy,260,2012-12-31 15:53:00
9:00 AM,12.2,6.8,79,29.91,10.0,West,5.8,-,N/A,,Mostly Cloudy,260,2012-12-31 16:00:00
9:01 AM,12.2,6.8,79,29.91,10.0,West,5.8,-,N/A,,Mostly Cloudy,270,2012-12-31 16:01:00
9:53 AM,15.1,9.0,77,30.15,10.0,West,8.1,-,N/A,,Clear,270,2012-12-31 16:53:00
10:53 AM,19.0,10.0,68,30.14,10.0,West,3.5,-,N/A,,Mostly Cloudy,260,2012-12-31 17:53:00
11:53 AM,19.9,9.0,62,30.10,10.0,East,3.5,-,N/A,,Overcast,100,2012-12-31 18:53:00
12:53 PM,19.9,10.0,65,30.09,10.0,East,3.5,-,N/A,,Overcast,90,2012-12-31 19:53:00
1:53 PM,21.0,10.9,65,30.06,10.0,Variable,3.5,-,N/A,,Mostly Cloudy,0,2012-12-31 20:53:00
2:53 PM,21.0,10.9,65,30.07,10.0,South,4.6,-,N/A,,Partly Cloudy,190,2012-12-31 21:53:00
3:53 PM,19.9,10.9,68,30.09,10.0,Calm,Calm,-,N/A,,Scattered Clouds,0,2012-12-31 22:53:00
4:53 PM,16.0,9.0,74,30.13,10.0,SSW,6.9,-,N/A,,Clear,200,2012-12-31 23:53:00
5:53 PM,17.1,10.9,77,30.14,10.0,WSW,5.8,-,N/A,,Overcast,250,2013-01-01 00:53:00
6:53 PM,14.0,10.0,84,30.18,9.0,WSW,3.5,-,N/A,,Overcast,240,2013-01-01 01:53:00
7:06 PM,10.4,8.6,92,29.92,9.0,SSW,4.6,-,N/A,,Overcast,210,2013-01-01 02:06:00
7:32 PM,8.6,3.2,79,29.92,10.0,West,10.4,-,N/A,,Scattered Clouds,270,2013-01-01 02:32:00
7:53 PM,7.0,3.9,87,30.21,10.0,WNW,4.6,-,N/A,,Clear,300,2013-01-01 02:53:00
8:53 PM,10.0,3.0,73,30.19,10.0,WNW,9.2,-,N/A,,Clear,300,2013-01-01 03:53:00
9:53 PM,6.1,-0.0,76,30.20,10.0,West,9.2,-,N/A,,Clear,280,2013-01-01 04:53:00
10:53 PM,6.1,-0.0,76,30.19,10.0,WNW,8.1,-,N/A,,Clear,290,2013-01-01 05:53:00
11:53 PM,3.9,-2.0,76,30.21,10.0,NW,4.6,-,N/A,,Clear,310,2013-01-01 06:53:00